Location: Unspecified
(0.0000°N, 0.0000°E)
Time: 03:11:13
(UTC+00:00)

ACS3 Solar Sail - Pass Details

Date: 22 November 2025
Orbit: 887 x 1000 km, 97.3° (Epoch: 14 December)

Event Time Altitude Azimuth Distance (km) Brightness Sun altitude
Exits shadow 03:06:25 14° 192° (SSW) 2,521 4.0 -37.0°
Drops below altitude 10° 03:07:07 10° 192° (SSW) 2,786 4.3 -36.9°
Sets 03:09:38 0° 191° (SSW) 3,742 5.0 -36.3°
